CAPE
0 0 0 0 0 0 0 0 0 0 0 0 0 0 0 0 0 0 0 0 0 0 0 0 0 0 0 0 0 0 0 0 0 0 0 0 0 0 0 0 0 0 0 0
0 0 0 0 0 0 0 0 0 0 0 0 0 0 0 0 0 0 0 0 0 0 0 0 0 0 0 0 0 0 0 0 0 0 0 0 0 0 0 0 0 0 0 0
0 0 0 0 0 0 0 0 0 0 0 0 0 0 0 0 0 0 0 0 0 0 0 0 0 0 0 0 0 0 0 0 0 0 0 0 0 0 0 0 0 0 0 0
0 0 0 0 0 0 0 0 0 0 0 0 0 0 0 0 0 0 0 0 0 0 0 0 0 0 0 0 0 0 0 0 0 0 0 0 0 0 0 0 0 0 0 0
0 0 0 0 0 0 0 0 0 0 0 0 0 0 0 0 0 0 0 0 0 0 0 0 0 0 0 0 0 0 0 0 0 0 0 0 0 0 0 0 0 0 0 0
0 0 0 0 0 0 0 0 0 0 0 0 0 0 0 0 0 0 0 0 0 0 0 0 0 0 0 0 0 0 0 0 0 0 0 0 0 0 0 0 0 0 0 0
0 0 0 0 0 0 0 0 0 0 0 0 0 0 0 0 0 0 0 0 0 0 0 0 0 0 0 0 0 0 0 0 0 0 0 0 0 0 0 0 0 0 0 0
0 0 0 0 0 0 0 0 0 0 0 0 0 0 0 0 0 0 0 0 0 0 0 0 0 0 0 0 0 0 0 0 0 0 0 0 0 0 0 0 0 0 0 0
0 0 0 0 0 0 0 0 0 0 0 0 0 0 0 0 0 0 0 0 0 0 0 0 0 0 0 0 0 0 0 0 0 0 0 0 0 0 0 0 0 0 0 0
0 0 0 0 0 0 0 0 0 0 0 2 0 0 0 0 0 0 0 0 0 0 0 0 0 0 0 0 0 0 0 0 0 0 0 0 0 0 0 0 0 0 0 0
0 0 0 0 0 0 0 0 0 0 0 0 0 0 0 0 0 0 0 0 0 0 0 0 0 0 0 0 0 0 0 0 0 0 0 0 0 0 0 0 0 0 0 0
0 0 0 0 0 0 0 0 0 0 0 0 0 0 0 0 0 0 0 0 0 0 0 0 0 0 0 0 0 0 0 0 0 0 0 0 0 0 0 0 0 0 0 0
0 0 0 0 0 0 0 0 0 0 0 0 0 0 0 0 0 0 0 0 0 0 0 0 0 0 0 0 0 0 0 0 0 0 0 0 0 0 0 0 0 0 0 0
0 0 0 0 0 0 0 0 0 0 0 0 0 0 0 0 0 0 0 0 0 0 0 0 0 0 0 0 0 0 0 0 0 0 0 0 0 0 0 0 0 0 0 0
0 0 0 0 0 0 0 0 0 0 0 0 0 0 0 0 0 0 0 0 0 0 0 0 0 0 0 0 0 0 0 0 0 0 0 0 0 0 0 0 0 0 0 0
0 0 0 0 0 0 0 0 0 0 0 0 0 0 0 0 0 0 0 0 0 0 0 0 0 0 0 0 0 0 0 0 0 0 0 0 0 0 0 0 0 0 0 0
0 0 0 0 0 0 0 0 0 0 0 0 0 0 0 0 0 0 0 0 0 0 0 0 0 0 0 0 0 0 0 0 0 0 0 0 0 0 0 0 0 0 0 0
0 0 0 0 0 0 0 0 0 0 0 0 0 0 0 0 0 0 0 0 0 0 0 0 0 0 0 0 0 0 0 0 0 0 0 0 0 0 0 0 0 0 0 0
0 0 0 0 0 0 0 0 0 0 0 0 0 0 0 0 0 0 0 0 0 0 0 0 0 0 0 0 0 0 0 0 0 0 0 0 0 0 0 0 0 0 0 0
0 0 0 0 1 3 0 0 0 0 0 0 0 0 0 0 0 0 0 0 0 0 0 0 0 0 0 0 0 0 0 0 0 0 0 0 0 0 0 0 0 0 0 0
0 0 0 1 0 1 0 0 0 0 0 0 0 0 0 0 0 0 0 0 0 0 0 0 0 0 0 0 0 0 0 0 0 0 0 0 0 0 0 0 0 0 0 0
0 0 0 1 1 0 0 0 0 0 0 0 0 0 0 0 0 0 0 0 0 0 0 0 0 0 0 0 0 0 0 0 0 0 0 0 0 0 0 0 0 0 0 0
0 0 0 0 0 0 0 0 0 0 0 0 0 0 0 0 0 0 0 0 0 0 0 0 0 0 0 0 0 0 0 0 0 0 0 0 0 0 0 0 0 0 0 0
0 0 1 1 0 0 0 0 0 0 0 0 0 0 0 0 0 0 0 0 0 0 0 0 0 0 0 0 0 0 0 0 0 0 0 0 0 0 0 0 0 0 0 0
0 0 1 0 0 0 0 0 0 0 0 0 0 0 0 0 0 0 0 0 0 0 0 0 0 0 0 0 0 0 0 0 0 0 0 0 0 0 0 0 0 0 0 0
0 0 0 0 0 0 0 0 0 0 0 0 0 0 0 0 0 0 0 0 0 0 0 0 0 0 0 0 0 0 0 0 0 0 0 0 0 0 0 0 0 0 0 0
CIN
0 0 0 0 0 0 0 0 0 0 0 0 0 0 0 0 0 0 0 0 0 0 0 0 0 0 0 0 0 0 0 0 0 0 0 0 0 0 0 0 0 0 0 0
0 0 0 0 0 0 0 0 0 0 0 0 0 0 0 0 0 0 0 0 0 0 0 0 0 0 0 0 0 0 0 0 0 0 0 0 0 0 0 0 0 0 0 0
0 0 0 0 0 0 0 0 0 0 0 0 0 0 0 0 0 0 0 0 0 0 0 0 0 0 0 0 0 0 0 0 0 0 0 0 0 0 0 0 0 0 0 0
0 0 0 0 0 0 0 0 0 0 0 0 0 0 0 0 0 0 0 0 0 0 0 0 0 0 0 0 0 0 0 0 0 0 0 0 0 0 0 0 0 0 0 0
0 0 0 0 0 0 0 0 0 0 0 0 0 0 0 0 0 0 0 0 0 0 0 0 0 0 0 0 0 0 0 0 0 0 0 0 0 0 0 0 0 0 0 0
0 0 0 0 0 0 0 0 0 0 0 0 0 0 0 0 0 0 0 0 0 0 0 0 0 0 0 0 0 0 0 0 0 0 0 0 0 0 0 0 0 0 0 0
0 0 0 0 0 0 0 0 0 0 0 0 0 0 0 0 0 0 0 0 0 0 0 0 0 0 0 0 0 0 0 0 0 0 0 0 0 0 0 0 0 0 0 0
0 0 0 0 0 0 0 0 0 0 0 0 0 0 0 0 0 0 0 0 0 0 0 0 0 0 0 0 0 0 0 0 0 0 0 0 0 0 0 0 0 0 0 0
0 0 0 0 0 0 0 0 0 0 0 0 0 0 0 0 0 0 0 0 0 0 0 0 0 0 0 0 0 0 0 0 0 0 0 0 0 0 0 0 0 0 0 0
0 0 0 0 0 0 0 0 0 0 0 0 0 0 0 0 0 0 0 0 0 0 0 0 0 0 0 0 0 0 0 0 0 0 0 0 0 0 0 0 0 0 0 0
0 0 0 0 0 0 0 0 0 0 0 0 0 0 0 0 0 0 0 0 0 0 0 0 0 0 0 0 0 0 0 0 0 0 0 0 0 0 0 0 0 0 0 0
0 0 0 0 0 0 0 0 0 0 0 0 0 0 0 0 0 0 0 0 0 0 0 0 0 0 0 0 0 0 0 0 0 0 0 0 0 0 0 0 0 0 0 0
0 0 0 0 0 0 0 0 0 0 0 0 0 0 0 0 0 0 0 0 0 0 0 0 0 0 0 0 0 0 0 0 0 0 0 0 0 0 0 0 0 0 0 0
0 0 0 0 0 0 0 0 0 0 0 0 0 0 0 0 0 0 0 0 0 0 0 0 0 0 0 0 0 0 0 0 0 0 0 0 0 0 0 0 0 0 0 0
0 0 0 0 0 0 0 0 0 0 0 0 0 0 0 0 0 0 0 0 0 0 0 0 0 0 0 0 0 0 0 0 0 0 0 0 0 0 0 0 0 0 0 0
0 0 0 0 0 0 0 0 0 0 0 0 0 0 0 0 0 0 0 0 0 0 0 0 0 0 0 0 0 0 0 0 0 0 0 0 0 0 0 0 0 0 0 0
0 0 0 0 0 0 0 0 0 0 0 0 0 0 0 0 0 0 0 0 0 0 0 0 0 0 0 0 0 0 0 0 0 0 0 0 0 0 0 0 0 0 0 0
0 0 0 0 0 0 0 0 0 0 0 0 0 0 0 0 0 0 0 0 0 0 0 0 0 0 0 0 0 0 0 0 0 0 0 0 0 0 0 0 0 0 0 0
0 0 0 0 0 0 0 0 0 0 0 0 0 0 0 0 0 0 0 0 0 0 0 0 0 0 0 0 0 0 0 0 0 0 0 0 0 0 0 0 0 0 0 0
0 -1 0 0 0 0 0 0 0 0 0 0 0 0 0 0 0 0 0 0 0 0 0 0 0 0 0 0 0 0 0 0 0 0 0 0 0 0 0 0 0 0 0 0
0 0 0 0 0 0 0 0 0 0 0 0 0 0 0 0 0 0 0 0 0 0 0 0 0 0 0 0 0 0 0 0 0 0 0 0 0 0 0 0 0 0 0 0
0 0 0 0 0 0 0 0 0 0 0 0 0 0 0 0 0 0 0 0 0 0 0 0 0 0 0 0 0 0 0 0 0 0 0 0 0 0 0 0 0 0 0 0
0 0 0 0 0 0 0 0 0 0 0 0 0 0 0 0 0 0 0 0 0 0 0 0 0 0 0 0 0 0 0 0 0 0 0 0 0 0 0 0 0 0 0 0
0 0 0 0 0 0 0 0 0 0 0 0 0 0 0 0 0 0 0 0 0 0 0 0 0 0 0 0 0 0 0 0 0 0 0 0 0 0 0 0 0 0 0 0
0 0 0 0 0 0 0 0 0 0 0 0 0 0 0 0 0 0 0 0 0 0 0 0 0 0 0 0 0 0 0 0 0 0 0 0 0 0 0 0 0 0 0 0
0 0 0 0 0 0 0 0 0 0 0 0 0 0 0 0 0 0 0 0 0 0 0 0 0 0 0 0 0 0 0 0 0 0 0 0 0 0 0 0 0 0 0 0
Wind_Speed
8 10 14 17 16 17 8 9 13 9 3 4 13 15 14 14 14 15 15 12 10 9 6 5 4 5 6 7 6 7 8 9 7 7 7 6 8 9 9 9 11 11 10 11
6 16 16 9 9 11 12 13 17 14 3 4 13 17 16 16 18 19 17 14 12 10 9 7 6 6 6 7 7 6 6 6 6 6 8 6 8 9 9 8 11 12 12 12
17 3 4 9 8 11 14 15 15 14 2 11 13 20 24 24 20 17 9 11 11 12 11 9 8 8 8 8 7 6 6 7 7 9 9 9 9 8 8 8 9 10 13 12
14 9 6 9 14 13 15 13 13 12 7 10 4 10 8 7 13 13 12 12 13 12 10 10 9 8 8 7 6 7 7 8 7 9 9 10 8 9 8 9 9 8 11 12
5 9 12 13 16 10 8 2 6 9 11 13 16 10 10 16 17 16 14 15 14 13 12 12 10 8 7 7 7 7 7 7 6 6 8 8 11 9 8 8 11 11 10 11
8 2 6 6 4 5 9 5 3 3 7 10 17 17 8 11 8 12 15 15 16 16 14 12 10 9 8 7 7 7 9 9 9 8 8 11 11 11 8 9 7 7 7 7
13 14 7 5 6 3 12 8 5 5 7 9 2 13 14 6 8 6 16 18 18 16 15 14 13 11 10 9 8 7 8 9 9 10 10 11 11 11 11 9 7 8 6 6
13 9 22 16 20 9 20 17 7 7 7 4 2 10 6 3 8 5 10 16 16 16 14 14 13 11 10 9 9 9 9 10 9 9 10 9 10 7 7 7 7 6 6 6
13 10 7 8 5 14 8 14 10 5 2 4 8 10 8 7 8 9 11 16 18 18 17 16 14 12 12 10 10 10 10 10 10 10 9 9 8 8 8 9 8 6 7 6
4 5 6 5 3 4 9 9 6 7 6 9 10 15 10 9 15 15 15 17 17 17 17 16 15 15 13 13 11 11 10 10 10 9 9 8 9 9 8 8 7 7 7 7
8 6 7 7 14 18 9 10 10 5 9 5 6 9 9 15 16 20 17 17 19 19 18 16 15 14 13 12 12 12 11 11 10 9 9 8 8 9 8 7 7 7 7 6
13 3 10 14 3 10 16 14 20 8 6 6 6 14 3 5 12 15 17 17 18 18 17 16 15 15 14 13 12 12 11 9 9 10 10 8 9 8 8 8 8 7 6 5
15 7 3 6 4 1 10 16 13 18 1 17 8 7 4 4 7 10 14 16 15 17 17 16 16 16 15 15 14 13 12 11 10 10 10 10 9 9 8 8 7 7 7 6
14 8 15 20 10 10 11 16 21 19 14 15 29 16 9 12 13 13 12 14 17 16 17 17 16 17 16 15 14 14 13 12 11 11 11 11 11 10 9 8 8 7 6 6
12 13 17 24 22 17 11 18 24 29 35 18 24 26 16 16 16 17 16 13 14 14 16 17 17 16 16 15 14 13 13 13 13 12 12 11 10 9 9 8 7 6 5 5
2 11 17 25 23 22 25 20 25 31 30 30 29 30 9 17 13 11 13 13 14 15 17 17 15 14 15 15 14 13 13 13 13 13 13 11 11 8 7 8 7 7 6 5
12 7 9 19 14 18 6 41 23 27 31 26 30 28 5 10 13 15 13 12 14 15 15 15 16 14 13 13 13 14 13 11 12 11 8 7 9 10 9 8 8 8 7 6
15 17 9 12 4 16 23 16 25 34 29 25 23 3 13 11 9 5 8 12 11 10 12 12 12 12 12 11 11 10 8 9 10 10 9 9 10 10 10 9 9 8 7 7
16 14 8 9 14 11 15 5 11 16 27 23 20 9 6 6 6 4 7 5 9 10 10 10 10 10 11 10 9 7 7 8 10 10 11 11 11 11 11 10 10 8 7 6
3 15 13 5 9 12 5 6 4 7 15 7 12 12 12 11 10 9 12 8 8 9 8 10 9 8 9 8 9 9 9 9 10 11 12 10 10 10 11 10 10 8 6 6
6 9 19 18 10 4 2 5 3 10 3 2 9 11 11 7 1 6 11 8 6 7 9 9 8 8 7 9 9 9 9 10 9 6 6 8 9 9 9 8 7 7 7 6
12 11 7 8 7 12 6 4 8 1 2 4 5 5 8 6 5 7 9 10 9 9 8 7 7 6 7 8 8 7 9 6 6 6 6 7 7 6 6 8 7 7 7 6
5 3 4 5 1 3 5 3 1 3 3 2 3 5 8 7 6 8 8 9 7 9 8 6 6 6 5 7 7 8 7 7 7 6 6 6 7 7 7 8 7 6 6 6
3 0 1 2 2 2 4 3 3 2 2 2 2 6 9 10 9 7 8 7 6 5 6 5 6 6 6 6 7 9 5 6 7 6 6 6 7 7 6 5 6 6 7 7
2 8 5 4 2 4 7 5 8 8 3 2 3 6 8 8 8 9 6 6 6 6 4 5 6 6 9 6 9 6 6 7 6 6 6 6 6 7 7 7 7 7 7 8
5 6 4 3 11 6 13 15 13 7 9 6 6 3 3 6 8 6 7 6 6 6 5 4 6 5 7 6 5 5 6 7 7 6 5 6 6 6 6 5 5 13 13 12
Wind_Direction
207 218 219 223 228 256 296 287 276 277 104 273 255 262 260 187 213 222 213 200 196 186 168 160 136 130 121 113 109 124 125 126 116 102 92 83 92 86 81 73 62 66 68 64
187 231 240 240 276 240 243 259 262 271 135 255 273 264 260 250 208 223 218 207 201 176 175 154 141 131 121 123 119 115 126 144 139 129 118 108 102 93 94 83 76 71 63 58
228 211 255 194 203 221 234 244 260 273 160 233 276 267 249 243 244 221 246 243 192 188 172 159 153 143 136 138 134 137 134 123 107 111 112 110 111 107 98 83 74 66 71 69
240 224 159 204 228 219 248 229 255 267 262 269 166 284 262 229 208 215 219 212 186 183 169 157 154 152 134 132 126 121 117 116 125 140 142 133 118 113 102 97 89 76 68 70
191 187 203 219 230 208 263 43 237 251 258 274 252 266 263 240 223 209 206 201 195 179 171 163 153 133 122 136 129 130 128 125 121 114 121 110 111 111 111 106 100 91 77 70
259 23 210 222 67 216 127 113 110 224 251 250 233 226 253 203 227 233 173 187 181 177 172 161 146 145 137 130 130 134 131 119 114 116 118 120 127 128 129 123 113 102 92 77
218 221 172 181 146 154 201 175 236 234 210 250 103 217 251 180 147 183 178 180 178 176 172 165 162 163 151 145 139 132 130 121 121 124 122 125 126 129 127 126 120 119 105 93
208 221 197 197 211 186 198 201 207 248 225 253 65 231 235 256 104 113 176 173 172 176 178 174 169 164 156 153 157 152 145 134 134 129 124 123 126 126 118 114 114 114 116 111
203 230 166 183 207 202 176 222 260 288 183 269 212 241 261 158 175 167 166 170 177 182 183 178 171 169 165 170 169 165 158 151 148 141 139 134 129 130 125 123 123 128 123 121
219 233 179 145 159 237 220 159 177 218 227 238 247 249 235 212 201 181 178 183 184 186 184 180 177 177 175 177 174 173 170 166 152 152 148 142 137 133 139 136 134 135 131 137
206 235 129 154 203 186 178 206 225 253 229 250 266 249 188 203 195 188 185 187 185 187 186 182 181 181 178 177 177 181 180 172 165 164 152 143 144 151 152 148 148 149 144 140
201 252 228 215 85 266 240 217 207 220 186 246 274 259 146 185 181 176 186 182 184 187 184 181 181 179 180 184 183 184 184 179 177 169 163 163 162 163 167 165 160 154 144 134
166 215 236 251 179 175 225 221 234 231 12 226 221 243 142 168 174 180 172 176 181 181 181 180 184 187 187 188 187 186 185 185 181 175 175 174 174 177 181 171 162 161 148 135
170 164 204 232 227 167 205 212 210 216 227 232 235 248 185 196 189 183 182 175 180 181 180 185 189 191 190 189 188 186 189 188 184 183 185 183 180 186 184 166 167 162 152 150
195 222 224 240 252 264 224 212 206 211 228 221 249 236 218 195 194 193 184 174 172 180 187 194 194 191 188 188 186 187 191 191 185 188 193 189 185 188 180 167 169 152 157 167
233 238 232 253 241 245 246 236 219 218 228 235 246 250 238 188 196 192 184 176 185 193 196 196 192 187 193 187 190 184 193 189 184 192 196 190 184 175 163 163 168 165 171 172
170 216 198 245 227 245 278 235 225 228 222 221 231 240 141 177 192 194 187 183 197 198 191 186 187 184 186 188 184 192 193 177 185 190 184 175 165 167 176 171 173 182 182 182
194 198 214 250 135 224 242 241 228 234 238 225 241 127 175 179 181 175 193 193 201 180 176 180 181 182 182 187 178 185 174 174 175 187 174 173 171 176 175 176 184 184 181 187
208 197 217 218 220 271 256 197 193 191 239 230 226 132 127 95 98 223 208 207 183 170 164 169 167 172 160 161 161 140 138 160 173 187 191 185 183 182 179 186 184 179 181 189
218 216 206 159 223 225 300 141 168 137 249 191 168 162 151 143 208 212 173 170 150 149 139 142 137 127 141 146 139 145 163 171 192 195 198 185 182 181 187 187 180 173 179 196
173 198 217 222 235 251 128 156 200 168 265 11 140 150 143 178 175 116 141 147 138 128 124 119 130 147 151 147 149 167 161 194 196 162 152 163 174 181 183 173 169 162 174 199
175 175 194 224 235 239 149 106 184 324 24 98 106 141 162 105 108 132 142 140 135 129 129 135 145 162 157 150 155 161 186 186 146 148 155 155 157 161 163 162 158 167 180 192
213 265 174 216 229 3 72 49 267 16 105 157 145 154 156 144 158 152 148 144 150 153 155 159 166 162 159 163 171 172 207 150 146 150 159 150 148 163 163 167 169 177 189 210
234 83 114 167 52 32 78 2 305 263 246 197 62 141 165 166 152 145 148 152 155 155 165 153 151 175 192 184 187 209 139 138 147 165 161 151 162 170 167 184 185 192 193 202
57 143 129 71 123 118 186 215 222 229 225 174 156 167 179 139 158 165 160 166 179 176 154 151 177 197 217 187 206 186 155 146 167 168 160 171 183 187 187 206 196 202 210 210
188 152 167 161 162 152 194 216 211 200 211 196 176 139 108 152 166 157 175 187 178 183 151 168 195 201 219 189 193 155 155 165 169 174 171 186 186 180 208 200 223 236 236 233